Location: Bruderhein
(53.8035°N, 112.9265°W)
Time: 11:43:03
(UTC+00:00)

Meteor 1-19 Rocket - Pass Details

Date: 03 December 2023
Orbit: 806 x 928 km, 81.2° (Epoch: 04 March)

Event Time Altitude Azimuth Distance (km) Brightness Sun altitude
Rises 13:32:06 0° 348° (NNW) 3,590 7.2 -16.2°
Reaches altitude 10° 13:34:47 10° 356° (N) 2,645 6.6 -15.8°
Maximum altitude 13:40:27 39° 65° (ENE) 1,351 5.7 -15.0°
Drops below altitude 10° 13:46:02 10° 133° (SE) 2,605 7.8 -14.2°
Sets 13:48:38 0° 141° (SE) 3,530 8.5 -13.8°
